Flag for U.S.A. Weather past 2 weeks in Metlakatla, Alaska, U.S.A.

Now
48 °F

Mostly cloudy.


Feels Like: 44 °F
Forecast: 46 / 49 °F
Wind: 10 mph from South

Location: Metlakatla - Metlakatla Seaplane Base

Current Time: Mar 26, 2015 at 11:34:54 AM

Latest Report: Mar 26, 2015 at 11:16 AM


Visibility: 10 mi

Pressure: 30.00 "Hg

Humidity: 82%

Dew point: 43 °F

Location of MetlakatlaLocation

Historic Weather in Metlakatla — Graph

°F

Metlakatla temperature yesterday

Maximum temperature yesterday: 52 °F (at 4:16 PM)
Minimum temperature yesterday: 45 °F (at 2:16 AM)
Average temperature yesterday: 47 °F

Past Weeks' High & Low Weather Summary

 TemperatureHumidityPressure
High54 °F (Mar 11, 1:36 PM)94% (Mar 11, 5:56 PM)30.21 "Hg (Mar 11, 5:56 PM)
Low32 °F (Mar 15, 5:56 AM)28% (Mar 16, 1:36 PM)29.37 "Hg (Mar 11, 3:56 PM)
Average45 °F73%29.89 "Hg
* Reported Mar 11 10:16 AM — Mar 26 10:36 AM, Metlakatla, Weather by CustomWeather, © 2015

Note: Actual official high and low records may vary slightly from our data, if they occured in-between our weather recording intervals... More about our weather records

Advertising

Metlakatla weather history for previous 24 hours

 ConditionsComfort  
Time TempWeatherWind HumidityBarometerVisibility
10:36 AM
Thu, Mar 26
48 °FOvercast.10 mph82%29.99 "Hg10 mi
9:56 AM48 °FOvercast.10 mph82%29.98 "Hg10 mi
9:36 AM48 °FMostly cloudy.9 mph82%29.97 "Hg10 mi
9:16 AM48 °FMostly cloudy.10 mph82%29.97 "Hg10 mi
8:36 AM46 °FCloudy.10 mph87%29.95 "Hg10 mi
8:16 AM48 °FMore clouds than sun.12 mph82%29.95 "Hg10 mi
7:56 AM46 °FMostly cloudy.10 mph87%29.95 "Hg10 mi
7:36 AM46 °FMostly cloudy.7 mph87%29.95 "Hg10 mi
7:16 AM46 °FPartly cloudy.13 mph87%29.94 "Hg10 mi
6:56 AM46 °FMostly cloudy.9 mph87%29.94 "Hg10 mi
6:36 AM46 °FPassing clouds.8 mph87%29.92 "Hg10 mi
6:16 AM46 °FPassing clouds.12 mph87%29.92 "Hg10 mi
5:56 AM46 °FPartly cloudy.8 mph87%29.91 "Hg10 mi
5:36 AM48 °FOvercast.12 mph87%29.91 "Hg10 mi
5:16 AM48 °FMostly cloudy.8 mph87%29.91 "Hg10 mi
4:56 AM46 °FMostly cloudy.5 mph93%29.91 "Hg10 mi
4:36 AM46 °FPartly cloudy.8 mph93%29.90 "Hg10 mi
4:16 AM46 °FMostly cloudy.8 mph93%29.90 "Hg10 mi
3:56 AM46 °FPartly cloudy.No wind93%29.90 "Hg10 mi
3:36 AM46 °FPassing clouds.No wind87%29.90 "Hg10 mi
3:16 AM46 °FPassing clouds.No wind87%29.89 "Hg10 mi
2:56 AM46 °FPartly cloudy.3 mph87%29.89 "Hg10 mi
2:36 AM46 °FOvercast.3 mph93%29.89 "Hg10 mi
2:16 AM46 °FOvercast.No wind93%29.89 "Hg10 mi
1:56 AM46 °FMostly cloudy.No wind93%29.89 "Hg10 mi
1:36 AM46 °FMostly cloudy.No wind93%29.88 "Hg10 mi
1:16 AM46 °FMostly cloudy.No wind93%29.87 "Hg10 mi
12:56 AM46 °FPartly cloudy.5 mph93%29.87 "Hg10 mi
12:36 AM46 °FPartly cloudy.3 mph93%29.86 "Hg10 mi
12:16 AM46 °FMostly cloudy.6 mph93%29.87 "Hg10 mi
11:56 PM
Wed, Mar 25
48 °FOvercast.6 mph87%29.87 "Hg10 mi
11:36 PM46 °FPassing clouds.5 mph93%29.86 "Hg9 mi
11:16 PM48 °FPassing clouds.5 mph87%29.85 "Hg9 mi
10:56 PM48 °FOvercast.5 mph87%29.84 "Hg10 mi
10:36 PM48 °FMostly cloudy.6 mph94%29.84 "Hg10 mi
9:56 PM48 °FMostly cloudy.6 mph87%29.84 "Hg7 mi
9:36 PM48 °FLow clouds.6 mph87%29.82 "Hg3 mi
9:16 PM48 °FMostly cloudy.8 mph87%29.81 "Hg9 mi
8:56 PM48 °FOvercast.8 mph87%29.80 "Hg5 mi
8:36 PM48 °FMostly cloudy.8 mph87%29.80 "Hg8 mi
8:16 PM48 °FMostly cloudy.10 mph87%29.79 "Hg6 mi
7:56 PM48 °FBroken clouds.16 mph87%29.79 "Hg8 mi
7:36 PM48 °FBroken clouds.13 mph87%29.78 "Hg10 mi
7:16 PM48 °FMostly cloudy.13 mph87%29.78 "Hg10 mi
6:56 PM48 °FMore clouds than sun.5 mph87%29.78 "Hg3 mi
6:36 PM48 °FMore clouds than sun.5 mph87%29.78 "Hg3 mi
6:16 PM48 °FMostly cloudy.7 mph82%29.77 "Hg5 mi
5:56 PM48 °FMostly cloudy.6 mph82%29.76 "Hg4 mi
5:36 PM48 °FMostly cloudy.5 mph87%29.77 "Hg7 mi
5:16 PM48 °FMostly cloudy.12 mph82%29.76 "Hg6 mi
4:56 PM52 °FCloudy.5 mph72%29.76 "Hg9 mi
4:36 PM52 °FMostly cloudy.8 mph72%29.75 "Hg10 mi
4:16 PM52 °FCloudy.8 mph72%29.76 "Hg10 mi
3:56 PM50 °FMostly cloudy.8 mph82%29.76 "Hg10 mi
3:36 PM46 °FMostly cloudy.13 mph87%29.77 "Hg10 mi
3:16 PM48 °FCloudy.15 mph76%29.78 "Hg10 mi
2:56 PM48 °FMostly cloudy.10 mph76%29.79 "Hg10 mi
2:36 PM46 °FMostly cloudy.15 mph82%29.80 "Hg10 mi
2:16 PM46 °FMostly cloudy.12 mph82%29.79 "Hg10 mi
1:56 PM46 °FOvercast.9 mph82%29.80 "Hg10 mi
1:36 PM46 °FOvercast.12 mph82%29.82 "Hg10 mi
1:16 PM46 °FOvercast.13 mph76%29.82 "Hg10 mi
12:56 PM46 °FOvercast.13 mph82%29.81 "Hg10 mi
12:36 PM46 °FOvercast.14 mph76%29.80 "Hg10 mi
12:16 PM45 °FOvercast.15 mph87%29.79 "Hg10 mi
11:56 AM45 °FOvercast.17 mph81%29.78 "Hg10 mi
11:36 AM45 °FOvercast.13 mph81%29.79 "Hg10 mi
11:16 AM45 °FOvercast.17 mph81%29.78 "Hg10 mi
Weather by CustomWeather, © 2015

See weather overviewHow to use our weather pages